• In Uzbekistan
  • List of Countries
  • For 7 days
  • Water Temperature
  • Weather Map
  • Weather Widgets
  • user-avatar
    Login

    Hourly Weather Vilkovo

    Today, 3 April, Friday

    Time Temperature Precipitation Wind Pressure Humidity
    00:00 +4°C° 0 mm 1 mps 761 mmHg 50%
    01:00 +4°C° 0 mm 1 mps 761 mmHg 49%
    02:00 +3°C° 0 mm 1 mps 761 mmHg 49%
    03:00 +3°C° 0 mm 1 mps 760 mmHg 48%
    04:00 +3°C° 0 mm 1 mps 760 mmHg 48%
    05:00 +3°C° 0 mm 1 mps 760 mmHg 47%
    06:00 +4°C° 0 mm 1 mps 760 mmHg 43%
    07:00 +6°C° 0 mm 1 mps 761 mmHg 38%
    08:00 +7°C° 0 mm 1 mps 761 mmHg 33%
    09:00 +8°C° 0 mm 2 mps 761 mmHg 31%
    10:00 +9°C° 0 mm 2 mps 761 mmHg 29%
    11:00 +11°C° 0 mm 3 mps 761 mmHg 28%
    12:00 +11°C° 0 mm 4 mps 761 mmHg 29%
    13:00 +12°C° 0 mm 4 mps 761 mmHg 30%
    14:00 +12°C° 0 mm 5 mps 761 mmHg 31%
    15:00 +12°C° 0 mm 5 mps 760 mmHg 34%
    16:00 +12°C° 0 mm 5 mps 760 mmHg 36%
    17:00 +10°C° 0 mm 6 mps 760 mmHg 39%
    18:00 +9°C° 0 mm 6 mps 760 mmHg 44%
    19:00 +7°C° 0 mm 6 mps 761 mmHg 50%
    20:00 +5°C° 0 mm 6 mps 761 mmHg 56%
    21:00 +6°C° 0 mm 5 mps 761 mmHg 58%
    22:00 +6°C° 0 mm 5 mps 761 mmHg 61%
    23:00 +5°C° 0 mm 5 mps 762 mmHg 63%

    Tomorrow, 4 April, Saturday

    Time Temperature Precipitation Wind Pressure Humidity
    00:00 +5°C° 0 mm 4 mps 762 mmHg 68%
    01:00 +5°C° 0 mm 4 mps 762 mmHg 72%
    02:00 +5°C° 0 mm 4 mps 763 mmHg 76%
    03:00 +5°C° 0 mm 3 mps 763 mmHg 78%
    04:00 +4°C° 0 mm 3 mps 763 mmHg 81%
    05:00 +4°C° 0 mm 3 mps 763 mmHg 83%
    06:00 +7°C° 0 mm 2 mps 763 mmHg 78%
    07:00 +8°C° 0 mm 2 mps 764 mmHg 73%
    08:00 +10°C° 0 mm 1 mps 764 mmHg 68%
    09:00 +10°C° 0 mm 2 mps 765 mmHg 61%
    10:00 +13°C° 0 mm 2 mps 765 mmHg 55%
    11:00 +13°C° 0 mm 3 mps 765 mmHg 49%
    12:00 +13°C° 0 mm 3 mps 765 mmHg 47%
    13:00 +14°C° 0 mm 3 mps 765 mmHg 45%
    14:00 +14°C° 0 mm 3 mps 765 mmHg 43%
    15:00 +13°C° 0 mm 3 mps 765 mmHg 44%
    16:00 +13°C° 0 mm 3 mps 765 mmHg 45%
    17:00 +12°C° 0 mm 3 mps 765 mmHg 46%
    18:00 +11°C° 0 mm 3 mps 766 mmHg 50%
    19:00 +10°C° 0 mm 2 mps 766 mmHg 54%
    20:00 +9°C° 0 mm 2 mps 767 mmHg 57%
    21:00 +9°C° 0 mm 1 mps 767 mmHg 57%
    22:00 +9°C° 0 mm 1 mps 767 mmHg 57%
    23:00 +8°C° 0 mm 0 mps 768 mmHg 57%

    Day after tomorrow, 5 April, Sunday

    Time Temperature Precipitation Wind Pressure Humidity
    00:00 +8°C° 0 mm 2 mps 768 mmHg 59%
    01:00 +8°C° 0 mm 3 mps 768 mmHg 60%
    02:00 +6°C° 0 mm 4 mps 768 mmHg 61%
    03:00 +6°C° 0 mm 4 mps 768 mmHg 65%
    04:00 +6°C° 0 mm 5 mps 769 mmHg 68%
    05:00 +6°C° 0 mm 5 mps 769 mmHg 71%
    06:00 +7°C° 0 mm 6 mps 769 mmHg 64%
    07:00 +8°C° 0 mm 7 mps 770 mmHg 57%
    08:00 +10°C° 0 mm 8 mps 770 mmHg 49%
    09:00 +10°C° 0 mm 8 mps 770 mmHg 46%
    10:00 +11°C° 0 mm 9 mps 771 mmHg 42%
    11:00 +12°C° 0 mm 9 mps 771 mmHg 38%
    12:00 +12°C° 0 mm 9 mps 771 mmHg 37%
    13:00 +12°C° 0 mm 9 mps 771 mmHg 35%
    14:00 +12°C° 0 mm 8 mps 771 mmHg 33%
    15:00 +12°C° 0 mm 8 mps 771 mmHg 33%
    16:00 +11°C° 0 mm 8 mps 771 mmHg 33%
    17:00 +11°C° 0 mm 7 mps 771 mmHg 34%
    18:00 +10°C° 0 mm 7 mps 771 mmHg 38%
    19:00 +9°C° 0 mm 7 mps 772 mmHg 42%
    20:00 +8°C° 0 mm 7 mps 772 mmHg 46%
    21:00 +7°C° 0 mm 8 mps 773 mmHg 45%
    22:00 +6°C° 0 mm 9 mps 773 mmHg 45%
    23:00 +6°C° 0 mm 10 mps 774 mmHg 44%

    6 April, Monday

    Time Temperature Precipitation Wind Pressure Humidity
    00:00 +5°C° 0 mm 10 mps 774 mmHg 44%
    01:00 +4°C° 0 mm 11 mps 774 mmHg 45%
    02:00 +3°C° 0 mm 11 mps 775 mmHg 45%
    03:00 +3°C° 0 mm 10 mps 775 mmHg 45%
    04:00 +2°C° 0 mm 10 mps 776 mmHg 45%
    05:00 +2°C° 0 mm 9 mps 776 mmHg 45%
    06:00 +2°C° 0 mm 10 mps 777 mmHg 43%
    07:00 +3°C° 0 mm 10 mps 777 mmHg 41%
    08:00 +5°C° 0 mm 10 mps 777 mmHg 40%
    09:00 +5°C° 0 mm 10 mps 778 mmHg 38%
    10:00 +6°C° 0 mm 10 mps 778 mmHg 36%
    11:00 +6°C° 0 mm 9 mps 779 mmHg 34%
    12:00 +6°C° 0 mm 9 mps 778 mmHg 34%
    13:00 +7°C° 0 mm 8 mps 778 mmHg 34%
    14:00 +8°C° 0 mm 7 mps 778 mmHg 34%
    15:00 +8°C° 0 mm 7 mps 778 mmHg 34%
    16:00 +8°C° 0 mm 6 mps 778 mmHg 34%
    17:00 +8°C° 0 mm 6 mps 778 mmHg 34%
    18:00 +7°C° 0 mm 5 mps 778 mmHg 38%
    19:00 +6°C° 0 mm 5 mps 778 mmHg 42%
    20:00 +5°C° 0 mm 4 mps 778 mmHg 46%
    21:00 +5°C° 0 mm 4 mps 778 mmHg 48%
    22:00 +5°C° 0 mm 4 mps 778 mmHg 51%
    23:00 +5°C° 0 mm 4 mps 778 mmHg 54%

    7 April, Tuesday

    Time Temperature Precipitation Wind Pressure Humidity
    00:00 +5°C° 0 mm 4 mps 778 mmHg 58%
    01:00 +4°C° 0 mm 4 mps 777 mmHg 63%
    02:00 +4°C° 0 mm 4 mps 777 mmHg 68%
    03:00 +4°C° 0 mm 4 mps 777 mmHg 68%
    04:00 +4°C° 0 mm 4 mps 777 mmHg 68%
    05:00 +3°C° 0 mm 5 mps 777 mmHg 69%
    06:00 +5°C° 0 mm 5 mps 777 mmHg 62%
    07:00 +6°C° 0 mm 5 mps 777 mmHg 55%
    08:00 +8°C° 0 mm 6 mps 777 mmHg 48%
    09:00 +8°C° 0 mm 6 mps 777 mmHg 44%
    10:00 +9°C° 0 mm 6 mps 777 mmHg 41%
    11:00 +10°C° 0 mm 6 mps 777 mmHg 38%
    12:00 +10°C° 0 mm 6 mps 777 mmHg 37%
    13:00 +10°C° 0 mm 5 mps 777 mmHg 37%
    14:00 +10°C° 0 mm 5 mps 776 mmHg 36%
    15:00 +10°C° 0 mm 5 mps 776 mmHg 37%
    16:00 +11°C° 0 mm 4 mps 776 mmHg 37%
    17:00 +10°C° 0 mm 3 mps 775 mmHg 37%
    18:00 +9°C° 0 mm 3 mps 775 mmHg 39%
    19:00 +8°C° 0 mm 2 mps 775 mmHg 42%
    20:00 +8°C° 0 mm 1 mps 775 mmHg 44%
    21:00 +7°C° 0 mm 2 mps 775 mmHg 44%
    22:00 +7°C° 0 mm 2 mps 775 mmHg 44%
    23:00 +7°C° 0 mm 3 mps 775 mmHg 44%

    8 April, Wednesday

    Time Temperature Precipitation Wind Pressure Humidity
    00:00 +7°C° 0 mm 3 mps 775 mmHg 46%
    01:00 +5°C° 0 mm 4 mps 774 mmHg 48%
    02:00 +5°C° 0 mm 4 mps 774 mmHg 50%
    03:00 +5°C° 0 mm 4 mps 774 mmHg 51%
    04:00 +5°C° 0 mm 4 mps 774 mmHg 53%
    05:00 +5°C° 0 mm 4 mps 774 mmHg 54%
    06:00 +6°C° 0 mm 4 mps 774 mmHg 50%
    07:00 +8°C° 0 mm 4 mps 774 mmHg 46%
    08:00 +11°C° 0 mm 4 mps 774 mmHg 42%
    09:00 +12°C° 0 mm 4 mps 774 mmHg 37%
    10:00 +14°C° 0 mm 4 mps 774 mmHg 33%
    11:00 +16°C° 0 mm 3 mps 773 mmHg 29%
    12:00 +17°C° 0 mm 3 mps 773 mmHg 27%
    13:00 +18°C° 0 mm 3 mps 773 mmHg 26%
    14:00 +18°C° 0 mm 3 mps 772 mmHg 25%
    15:00 +18°C° 0 mm 2 mps 772 mmHg 25%
    16:00 +18°C° 0 mm 2 mps 771 mmHg 26%
    17:00 +18°C° 0 mm 2 mps 771 mmHg 27%
    18:00 +16°C° 0 mm 2 mps 771 mmHg 30%
    19:00 +15°C° 0 mm 2 mps 771 mmHg 34%
    20:00 +13°C° 0 mm 2 mps 771 mmHg 37%
    21:00 +13°C° 0 mm 2 mps 770 mmHg 39%
    22:00 +11°C° 0 mm 3 mps 770 mmHg 41%
    23:00 +11°C° 0 mm 4 mps 770 mmHg 42%
    Show more